Time,TemperatureF,DewpointF,PressureIn,WindDirection,WindDirectionDegrees,WindSpeedMPH,WindSpeedGustMPH,Humidity,HourlyPrecipIn,Conditions,Clouds,dailyrainin,SoftwareType,DateUTC
2013-05-01 00:01:00,69.7,67.3,30.00,SSW,203,0.0,0.0,92,0.00,,,0.00,WSDL version 420,2013-05-01 04:01:00,
2013-05-01 00:06:00,69.6,67.3,30.00,SSW,203,0.0,0.0,92,0.00,,,0.00,WSDL version 420,2013-05-01 04:06:00,
2013-05-01 00:11:00,69.6,67.2,30.00,SSW,203,0.0,0.0,92,0.00,,,0.00,WSDL version 420,2013-05-01 04:11:00,
2013-05-01 00:16:00,69.6,67.2,30.00,SSW,203,0.0,0.0,92,0.00,,,0.00,WSDL version 420,2013-05-01 04:16:00,
2013-05-01 00:21:00,69.4,67.1,30.00,SSW,203,0.0,0.0,92,0.00,,,0.00,WSDL version 420,2013-05-01 04:21:00,
2013-05-01 00:26:00,69.4,67.0,30.00,SSW,203,0.0,0.0,92,0.00,,,0.00,WSDL version 420,2013-05-01 04:26:00,
2013-05-01 00:31:00,69.3,66.9,29.97,SSW,203,0.0,0.0,92,0.00,,,0.00,WSDL version 420,2013-05-01 04:31:00,
2013-05-01 00:36:00,69.3,66.9,29.97,SSW,203,0.0,0.0,92,0.00,,,0.00,WSDL version 420,2013-05-01 04:36:00,
2013-05-01 00:41:00,69.3,66.9,29.97,SSW,203,0.0,0.0,92,0.00,,,0.00,WSDL version 420,2013-05-01 04:41:00,
2013-05-01 00:46:00,69.3,66.9,30.00,SSW,203,0.0,0.0,92,0.00,,,0.00,WSDL version 420,2013-05-01 04:46:00,
2013-05-01 00:51:00,69.3,66.9,30.00,SSW,203,0.0,0.0,92,0.00,,,0.00,WSDL version 420,2013-05-01 04:51:00,
2013-05-01 00:56:00,69.3,66.9,30.00,North,0,0.0,0.0,92,0.00,,,0.00,WSDL version 420,2013-05-01 04:56:00,
2013-05-01 01:01:00,69.1,66.7,30.00,North,-999,-999.0,-999.0,92,0.00,,,0.00,WSDL version 420,2013-05-01 05:01:00,
2013-05-01 01:06:00,69.1,66.7,30.00,North,-999,-999.0,-999.0,92,0.00,,,0.00,WSDL version 420,2013-05-01 05:06:00,
2013-05-01 01:11:00,69.1,66.7,30.00,North,-999,-999.0,-999.0,92,0.00,,,0.00,WSDL version 420,2013-05-01 05:11:00,
2013-05-01 01:16:00,69.1,66.7,29.97,North,-999,-999.0,-999.0,92,0.00,,,0.00,WSDL version 420,2013-05-01 05:16:00,
2013-05-01 01:21:00,69.0,66.6,29.97,North,-999,-999.0,-999.0,92,0.00,,,0.00,WSDL version 420,2013-05-01 05:21:00,
2013-05-01 01:26:00,68.9,66.6,29.97,North,-999,-999.0,-999.0,92,0.00,,,0.00,WSDL version 420,2013-05-01 05:26:00,
2013-05-01 01:31:00,68.9,66.6,30.00,North,-999,-999.0,-999.0,92,0.00,,,0.00,WSDL version 420,2013-05-01 05:31:00,
2013-05-01 01:36:00,68.8,66.5,30.00,North,-999,-999.0,-999.0,92,0.00,,,0.00,WSDL version 420,2013-05-01 05:36:00,
2013-05-01 01:41:00,68.7,66.4,30.00,North,-999,-999.0,-999.0,92,0.00,,,0.00,WSDL version 420,2013-05-01 05:41:00,
2013-05-01 01:46:00,68.7,66.4,29.97,North,-999,-999.0,-999.0,92,0.00,,,0.00,WSDL version 420,2013-05-01 05:46:00,
2013-05-01 01:51:00,68.7,66.4,29.97,North,-999,-999.0,-999.0,92,0.00,,,0.00,WSDL version 420,2013-05-01 05:51:00,
2013-05-01 01:56:00,68.7,66.4,29.97,North,-999,-999.0,-999.0,92,0.00,,,0.00,WSDL version 420,2013-05-01 05:56:00,
2013-05-01 02:01:00,68.7,66.4,29.97,North,-999,-999.0,-999.0,92,0.00,,,0.00,WSDL version 420,2013-05-01 06:01:00,
2013-05-01 02:06:00,68.6,66.2,29.97,North,-999,-999.0,-999.0,92,0.00,,,0.00,WSDL version 420,2013-05-01 06:06:00,
2013-05-01 02:11:00,68.5,66.5,29.97,SSW,203,0.0,0.0,93,0.00,,,0.00,WSDL version 420,2013-05-01 06:11:00,
2013-05-01 02:16:00,68.5,66.5,29.97,SSW,203,0.0,0.0,93,0.00,,,0.00,WSDL version 420,2013-05-01 06:16:00,
2013-05-01 02:21:00,68.5,66.2,29.97,SSW,203,0.0,0.0,92,0.00,,,0.00,WSDL version 420,2013-05-01 06:21:00,
2013-05-01 02:26:00,68.5,66.5,29.97,North,0,0.0,0.0,93,0.00,,,0.00,WSDL version 420,2013-05-01 06:26:00,
2013-05-01 02:36:00,68.4,66.4,29.97,North,-999,-999.0,-999.0,93,0.00,,,0.00,WSDL version 420,2013-05-01 06:36:00,
2013-05-01 02:41:00,68.4,66.4,29.97,North,-999,-999.0,-999.0,93,0.00,,,0.00,WSDL version 420,2013-05-01 06:41:00,
2013-05-01 02:46:00,68.4,66.4,29.94,North,-999,-999.0,-999.0,93,0.00,,,0.00,WSDL version 420,2013-05-01 06:46:00,
2013-05-01 02:51:00,68.4,66.4,29.94,North,-999,-999.0,-999.0,93,0.00,,,0.00,WSDL version 420,2013-05-01 06:51:00,
2013-05-01 02:56:00,68.4,66.4,29.94,SSW,203,0.0,0.0,93,0.00,,,0.00,WSDL version 420,2013-05-01 06:56:00,
2013-05-01 03:01:00,68.4,66.4,29.94,SSW,203,0.0,0.0,93,0.00,,,0.00,WSDL version 420,2013-05-01 07:01:00,
2013-05-01 03:06:00,68.2,66.2,29.94,SSW,203,0.0,0.0,93,0.00,,,0.00,WSDL version 420,2013-05-01 07:06:00,
2013-05-01 03:11:00,68.2,66.2,29.94,SSW,203,0.0,0.0,93,0.00,,,0.00,WSDL version 420,2013-05-01 07:11:00,
2013-05-01 03:16:00,68.2,66.2,29.97,North,0,0.0,0.0,93,0.00,,,0.00,WSDL version 420,2013-05-01 07:16:00,
2013-05-01 03:21:00,68.2,66.2,29.97,North,-999,-999.0,-999.0,93,0.00,,,0.00,WSDL version 420,2013-05-01 07:21:00,
2013-05-01 03:26:00,68.1,66.1,29.97,North,-999,-999.0,-999.0,93,0.00,,,0.00,WSDL version 420,2013-05-01 07:26:00,
2013-05-01 03:31:00,68.2,66.2,29.94,North,-999,-999.0,-999.0,93,0.00,,,0.00,WSDL version 420,2013-05-01 07:31:00,
2013-05-01 03:36:00,68.0,66.0,29.94,North,-999,-999.0,-999.0,93,0.00,,,0.00,WSDL version 420,2013-05-01 07:36:00,
2013-05-01 03:41:00,68.0,66.0,29.94,North,-999,-999.0,-999.0,93,0.00,,,0.00,WSDL version 420,2013-05-01 07:41:00,
2013-05-01 03:46:00,68.0,66.0,29.94,North,-999,-999.0,-999.0,93,0.00,,,0.00,WSDL version 420,2013-05-01 07:46:00,
2013-05-01 03:51:00,68.0,66.0,29.94,North,-999,-999.0,-999.0,93,0.00,,,0.00,WSDL version 420,2013-05-01 07:51:00,
2013-05-01 03:56:00,68.0,66.0,29.94,North,-999,-999.0,-999.0,93,0.00,,,0.00,WSDL version 420,2013-05-01 07:56:00,
2013-05-01 04:01:00,68.0,66.0,29.94,North,-999,-999.0,-999.0,93,0.00,,,0.00,WSDL version 420,2013-05-01 08:01:00,
2013-05-01 04:06:00,68.0,66.0,29.94,North,-999,-999.0,-999.0,93,0.00,,,0.00,WSDL version 420,2013-05-01 08:06:00,
2013-05-01 04:11:00,68.0,66.0,29.94,North,-999,-999.0,-999.0,93,0.00,,,0.00,WSDL version 420,2013-05-01 08:11:00,
2013-05-01 04:16:00,68.0,66.0,29.94,North,-999,-999.0,-999.0,93,0.00,,,0.00,WSDL version 420,2013-05-01 08:16:00,
2013-05-01 04:21:00,68.0,66.0,29.94,North,-999,-999.0,-999.0,93,0.00,,,0.00,WSDL version 420,2013-05-01 08:21:00,
2013-05-01 04:26:00,67.8,65.8,29.94,North,-999,-999.0,-999.0,93,0.00,,,0.00,WSDL version 420,2013-05-01 08:26:00,
2013-05-01 04:31:00,67.8,65.8,29.97,North,-999,-999.0,-999.0,93,0.00,,,0.00,WSDL version 420,2013-05-01 08:31:00,
2013-05-01 04:36:00,67.8,65.8,29.97,North,-999,-999.0,-999.0,93,0.00,,,0.00,WSDL version 420,2013-05-01 08:36:00,
2013-05-01 04:41:00,67.8,65.8,29.97,North,-999,-999.0,-999.0,93,0.00,,,0.00,WSDL version 420,2013-05-01 08:41:00,
2013-05-01 04:46:00,67.8,65.8,29.94,North,-999,-999.0,-999.0,93,0.00,,,0.00,WSDL version 420,2013-05-01 08:46:00,
2013-05-01 04:51:00,67.8,65.8,29.94,North,-999,-999.0,-999.0,93,0.00,,,0.00,WSDL version 420,2013-05-01 08:51:00,
2013-05-01 04:56:00,67.8,65.8,29.94,North,-999,-999.0,-999.0,93,0.00,,,0.00,WSDL version 420,2013-05-01 08:56:00,
2013-05-01 05:01:00,67.8,65.8,29.97,North,-999,-999.0,-999.0,93,0.00,,,0.00,WSDL version 420,2013-05-01 09:01:00,
2013-05-01 05:06:00,67.8,65.8,29.97,North,-999,-999.0,-999.0,93,0.00,,,0.00,WSDL version 420,2013-05-01 09:06:00,
2013-05-01 05:11:00,67.8,65.8,29.97,North,-999,-999.0,-999.0,93,0.00,,,0.00,WSDL version 420,2013-05-01 09:11:00,
2013-05-01 05:16:00,68.0,66.0,29.94,North,-999,-999.0,-999.0,93,0.00,,,0.00,WSDL version 420,2013-05-01 09:16:00,
2013-05-01 05:21:00,68.0,66.0,29.94,North,-999,-999.0,-999.0,93,0.00,,,0.00,WSDL version 420,2013-05-01 09:21:00,
2013-05-01 05:26:00,68.0,66.0,29.94,North,-999,-999.0,-999.0,93,0.00,,,0.00,WSDL version 420,2013-05-01 09:26:00,
2013-05-01 05:31:00,68.0,66.0,29.94,North,-999,-999.0,-999.0,93,0.00,,,0.00,WSDL version 420,2013-05-01 09:31:00,
2013-05-01 05:36:00,68.0,66.0,29.94,North,-999,-999.0,-999.0,93,0.00,,,0.00,WSDL version 420,2013-05-01 09:36:00,
2013-05-01 05:41:00,67.9,66.1,29.94,North,-999,-999.0,-999.0,93,0.00,,,0.00,WSDL version 420,2013-05-01 09:41:00,
2013-05-01 05:46:00,68.0,66.0,29.94,North,-999,-999.0,-999.0,93,0.00,,,0.00,WSDL version 420,2013-05-01 09:46:00,
2013-05-01 05:51:00,68.0,66.2,29.94,North,-999,-999.0,-999.0,93,0.00,,,0.00,WSDL version 420,2013-05-01 09:51:00,
2013-05-01 05:56:00,68.0,66.4,29.94,North,-999,-999.0,-999.0,94,0.00,,,0.00,WSDL version 420,2013-05-01 09:56:00,
2013-05-01 06:01:00,68.2,66.5,29.94,North,-999,-999.0,-999.0,94,0.00,,,0.00,WSDL version 420,2013-05-01 10:01:00,
2013-05-01 06:06:00,68.2,66.5,29.94,North,-999,-999.0,-999.0,94,0.00,,,0.00,WSDL version 420,2013-05-01 10:06:00,
2013-05-01 06:11:00,68.2,66.5,29.94,North,-999,-999.0,-999.0,94,0.00,,,0.00,WSDL version 420,2013-05-01 10:11:00,
2013-05-01 06:16:00,68.2,66.5,29.94,North,-999,-999.0,-999.0,94,0.00,,,0.00,WSDL version 420,2013-05-01 10:16:00,
2013-05-01 06:21:00,68.2,66.5,29.94,North,-999,-999.0,-999.0,94,0.00,,,0.00,WSDL version 420,2013-05-01 10:21:00,
2013-05-01 06:26:00,68.2,66.5,29.94,North,-999,-999.0,-999.0,94,0.00,,,0.00,WSDL version 420,2013-05-01 10:26:00,
2013-05-01 06:31:00,68.2,66.5,29.97,North,-999,-999.0,-999.0,94,0.00,,,0.00,WSDL version 420,2013-05-01 10:31:00,
2013-05-01 06:36:00,68.4,66.7,29.97,North,-999,-999.0,-999.0,94,0.00,,,0.00,WSDL version 420,2013-05-01 10:36:00,
2013-05-01 06:41:00,68.4,66.7,29.97,SSW,203,0.0,0.0,94,0.00,,,0.00,WSDL version 420,2013-05-01 10:41:00,
2013-05-01 06:46:00,68.2,66.5,29.97,SSW,203,0.0,0.0,94,0.00,,,0.00,WSDL version 420,2013-05-01 10:46:00,
2013-05-01 06:51:00,68.3,66.6,29.97,SSW,203,0.0,0.0,94,0.00,,,0.00,WSDL version 420,2013-05-01 10:51:00,
2013-05-01 06:56:00,68.4,66.7,29.97,SSW,203,0.0,0.0,94,0.00,,,0.00,WSDL version 420,2013-05-01 10:56:00,
2013-05-01 07:01:00,68.5,66.8,30.00,SSW,203,0.0,0.0,94,0.00,,,0.00,WSDL version 420,2013-05-01 11:01:00,
2013-05-01 07:06:00,68.5,66.9,30.00,SSW,203,0.0,0.0,94,0.00,,,0.00,WSDL version 420,2013-05-01 11:06:00,
2013-05-01 07:11:00,68.8,67.1,30.00,SW,225,0.0,0.0,94,0.00,,,0.00,WSDL version 420,2013-05-01 11:11:00,
2013-05-01 07:16:00,68.9,67.2,30.00,SW,225,0.0,0.0,94,0.00,,,0.00,WSDL version 420,2013-05-01 11:16:00,
2013-05-01 07:21:00,69.1,67.4,30.00,SW,225,0.0,0.0,94,0.00,,,0.00,WSDL version 420,2013-05-01 11:21:00,
2013-05-01 07:26:00,69.2,67.5,30.00,SW,225,0.0,0.0,94,0.00,,,0.00,WSDL version 420,2013-05-01 11:26:00,
2013-05-01 07:31:00,69.4,67.7,30.00,SW,225,0.0,0.0,94,0.00,,,0.00,WSDL version 420,2013-05-01 11:31:00,
2013-05-01 07:36:00,69.5,67.8,30.00,SW,225,0.0,0.0,94,0.00,,,0.00,WSDL version 420,2013-05-01 11:36:00,
2013-05-01 07:41:00,69.7,68.0,30.00,SW,225,0.0,0.0,94,0.00,,,0.00,WSDL version 420,2013-05-01 11:41:00,
2013-05-01 07:46:00,70.0,68.3,30.00,SW,225,0.0,0.0,94,0.00,,,0.00,WSDL version 420,2013-05-01 11:46:00,
2013-05-01 07:51:00,70.3,68.6,30.00,SW,225,0.0,0.0,94,0.00,,,0.00,WSDL version 420,2013-05-01 11:51:00,
2013-05-01 07:56:00,70.6,69.1,30.00,SW,225,0.0,0.0,96,0.00,,,0.00,WSDL version 420,2013-05-01 11:56:00,
2013-05-01 08:01:00,71.0,69.6,30.00,SW,225,0.0,0.0,96,0.00,,,0.00,WSDL version 420,2013-05-01 12:01:00,
2013-05-01 08:06:00,71.3,70.0,30.00,SW,225,0.0,0.0,96,0.00,,,0.00,WSDL version 420,2013-05-01 12:06:00,
2013-05-01 08:11:00,71.7,70.1,30.00,SW,225,0.0,0.0,94,0.00,,,0.00,WSDL version 420,2013-05-01 12:11:00,
2013-05-01 08:16:00,72.3,71.0,30.00,SW,225,0.0,0.0,96,0.00,,,0.00,WSDL version 420,2013-05-01 12:16:00,
2013-05-01 08:21:00,73.0,71.7,30.00,SW,225,0.0,0.0,96,0.00,,,0.00,WSDL version 420,2013-05-01 12:21:00,
2013-05-01 08:26:00,73.5,71.8,30.00,SW,225,0.0,0.0,94,0.00,,,0.00,WSDL version 420,2013-05-01 12:26:00,
2013-05-01 08:31:00,73.8,72.1,30.00,East,90,0.0,0.0,94,0.00,,,0.00,WSDL version 420,2013-05-01 12:31:00,
2013-05-01 08:36:00,74.1,72.4,30.00,East,90,0.0,0.0,94,0.00,,,0.00,WSDL version 420,2013-05-01 12:36:00,
2013-05-01 08:41:00,74.6,72.6,30.00,East,90,0.0,0.0,93,0.00,,,0.00,WSDL version 420,2013-05-01 12:41:00,
2013-05-01 08:46:00,76.2,74.2,30.00,NE,45,0.0,0.0,93,0.00,,,0.00,WSDL version 420,2013-05-01 12:46:00,
2013-05-01 08:51:00,77.8,75.7,30.00,South,170,0.0,2.5,93,0.00,,,0.00,WSDL version 420,2013-05-01 12:51:00,
2013-05-01 08:56:00,79.0,74.9,30.00,East,79,1.9,3.4,84,0.00,,,0.00,WSDL version 420,2013-05-01 12:56:00,
2013-05-01 09:01:00,80.0,72.9,30.00,ENE,77,1.7,3.4,77,0.00,,,0.00,WSDL version 420,2013-05-01 13:01:00,
2013-05-01 09:06:00,80.5,71.9,30.00,East,81,1.7,3.8,74,0.00,,,0.00,WSDL version 420,2013-05-01 13:06:00,
2013-05-01 09:11:00,80.4,70.4,30.00,ESE,120,1.7,4.0,70,0.00,,,0.00,WSDL version 420,2013-05-01 13:11:00,
2013-05-01 09:16:00,81.2,70.1,30.00,East,90,0.9,4.0,68,0.00,,,0.00,WSDL version 420,2013-05-01 13:16:00,
2013-05-01 09:21:00,80.5,68.6,30.00,ENE,64,1.4,3.6,67,0.00,,,0.00,WSDL version 420,2013-05-01 13:21:00,
2013-05-01 09:26:00,80.0,68.0,30.00,ENE,64,2.2,4.3,66,0.00,,,0.00,WSDL version 420,2013-05-01 13:26:00,
2013-05-01 09:31:00,79.6,67.3,30.00,ENE,70,2.5,5.6,66,0.00,,,0.00,WSDL version 420,2013-05-01 13:31:00,
2013-05-01 09:36:00,80.6,68.2,30.00,East,84,2.7,5.6,66,0.00,,,0.00,WSDL version 420,2013-05-01 13:36:00,
2013-05-01 09:41:00,83.7,70.4,30.00,NE,48,0.5,4.3,61,0.00,,,0.00,WSDL version 420,2013-05-01 13:41:00,
2013-05-01 09:46:00,84.6,70.3,29.97,NW,315,1.6,4.3,61,0.00,,,0.00,WSDL version 420,2013-05-01 13:46:00,
2013-05-01 09:51:00,82.7,67.3,29.97,NE,56,2.5,2.9,61,0.00,,,0.00,WSDL version 420,2013-05-01 13:51:00,
2013-05-01 09:56:00,81.8,67.1,29.97,ENE,62,0.9,3.4,61,0.00,,,0.00,WSDL version 420,2013-05-01 13:56:00,
2013-05-01 10:01:00,83.0,68.3,30.00,ENE,68,2.3,4.0,61,0.00,,,0.00,WSDL version 420,2013-05-01 14:01:00,
2013-05-01 10:06:00,83.3,67.7,30.00,East,86,3.9,5.4,59,0.00,,,0.00,WSDL version 420,2013-05-01 14:06:00,
2013-05-01 10:11:00,83.6,68.1,30.00,East,90,2.2,5.4,60,0.00,,,0.00,WSDL version 420,2013-05-01 14:11:00,
2013-05-01 10:16:00,83.6,67.9,30.00,NE,45,3.1,4.9,59,0.00,,,0.00,WSDL version 420,2013-05-01 14:16:00,
2013-05-01 10:21:00,83.8,68.0,30.00,SE,135,3.2,5.4,60,0.00,,,0.00,WSDL version 420,2013-05-01 14:21:00,
2013-05-01 10:26:00,83.6,67.7,30.00,NE,55,2.5,5.8,59,0.00,,,0.00,WSDL version 420,2013-05-01 14:26:00,
2013-05-01 10:31:00,84.0,68.5,30.03,ESE,103,1.9,5.8,60,0.00,,,0.00,WSDL version 420,2013-05-01 14:31:00,
2013-05-01 10:36:00,84.8,69.4,30.03,SSW,206,2.7,3.8,60,0.00,,,0.00,WSDL version 420,2013-05-01 14:36:00,
2013-05-01 10:41:00,85.2,69.9,30.03,South,173,1.3,3.8,60,0.00,,,0.00,WSDL version 420,2013-05-01 14:41:00,
2013-05-01 10:46:00,85.1,69.0,30.03,ESE,120,0.4,3.6,59,0.00,,,0.00,WSDL version 420,2013-05-01 14:46:00,
2013-05-01 10:51:00,85.0,69.1,30.03,SSE,158,1.1,3.6,59,0.00,,,0.00,WSDL version 420,2013-05-01 14:51:00,
2013-05-01 10:56:00,84.0,67.8,30.03,NNE,23,2.2,3.1,59,0.00,,,0.00,WSDL version 420,2013-05-01 14:56:00,
2013-05-01 11:01:00,83.5,67.7,30.00,East,87,0.9,4.0,59,0.00,,,0.00,WSDL version 420,2013-05-01 15:01:00,
2013-05-01 11:06:00,84.3,68.7,30.00,ESE,105,1.9,4.0,60,0.00,,,0.00,WSDL version 420,2013-05-01 15:06:00,
2013-05-01 11:11:00,85.0,68.7,30.00,East,94,2.6,4.0,57,0.00,,,0.00,WSDL version 420,2013-05-01 15:11:00,
2013-05-01 11:16:00,84.9,68.2,30.00,South,173,2.5,4.0,57,0.00,,,0.00,WSDL version 420,2013-05-01 15:16:00,
2013-05-01 11:21:00,85.1,68.5,30.00,East,96,3.1,5.8,57,0.00,,,0.00,WSDL version 420,2013-05-01 15:21:00,
2013-05-01 11:26:00,84.6,67.0,30.00,ESE,120,3.0,5.8,55,0.00,,,0.00,WSDL version 420,2013-05-01 15:26:00,
2013-05-01 11:31:00,84.4,67.0,30.00,North,11,2.1,5.6,56,0.00,,,0.00,WSDL version 420,2013-05-01 15:31:00,
2013-05-01 11:36:00,84.2,67.1,30.00,South,180,2.2,5.4,57,0.00,,,0.00,WSDL version 420,2013-05-01 15:36:00,
2013-05-01 11:41:00,83.7,67.1,30.00,South,176,2.4,3.1,58,0.00,,,0.00,WSDL version 420,2013-05-01 15:41:00,
2013-05-01 11:46:00,83.3,67.3,30.00,WSW,240,2.5,3.1,59,0.00,,,0.00,WSDL version 420,2013-05-01 15:46:00,
2013-05-01 11:51:00,83.1,67.5,30.00,South,180,2.5,4.9,60,0.00,,,0.00,WSDL version 420,2013-05-01 15:51:00,
2013-05-01 11:56:00,82.9,67.6,30.00,WNW,293,1.7,4.9,60,0.00,,,0.00,WSDL version 420,2013-05-01 15:56:00,
2013-05-01 12:01:00,83.1,68.2,30.00,ESE,105,1.5,4.0,61,0.00,,,0.00,WSDL version 420,2013-05-01 16:01:00,
2013-05-01 12:06:00,82.7,68.0,30.00,NE,53,1.6,2.9,61,0.00,,,0.00,WSDL version 420,2013-05-01 16:06:00,
2013-05-01 12:11:00,82.6,67.9,30.00,NE,38,1.6,2.9,60,0.00,,,0.00,WSDL version 420,2013-05-01 16:11:00,
2013-05-01 12:16:00,82.9,67.4,29.97,NW,324,2.9,2.9,59,0.00,,,0.00,WSDL version 420,2013-05-01 16:16:00,
2013-05-01 12:21:00,83.8,68.2,29.97,NE,45,1.6,3.8,59,0.00,,,0.00,WSDL version 420,2013-05-01 16:21:00,
2013-05-01 12:26:00,83.5,67.0,29.97,NNE,28,3.5,5.4,57,0.00,,,0.00,WSDL version 420,2013-05-01 16:26:00,
2013-05-01 12:31:00,83.5,67.1,30.00,SE,144,2.6,5.4,57,0.00,,,0.00,WSDL version 420,2013-05-01 16:31:00,
2013-05-01 12:36:00,84.5,67.1,30.00,NE,53,3.2,5.4,56,0.00,,,0.00,WSDL version 420,2013-05-01 16:36:00,
2013-05-01 12:41:00,85.7,67.6,30.00,SSW,194,3.6,6.3,55,0.00,,,0.00,WSDL version 420,2013-05-01 16:41:00,
2013-05-01 12:46:00,86.3,67.8,29.97,NE,53,3.0,7.2,54,0.00,,,0.00,WSDL version 420,2013-05-01 16:46:00,
2013-05-01 12:51:00,86.9,69.1,29.97,SE,143,2.9,7.2,55,0.00,,,0.00,WSDL version 420,2013-05-01 16:51:00,
2013-05-01 12:56:00,87.4,68.5,29.97,North,349,2.8,5.4,54,0.00,,,0.00,WSDL version 420,2013-05-01 16:56:00,
2013-05-01 13:01:00,87.5,67.9,30.00,NE,48,3.7,6.5,50,0.00,,,0.00,WSDL version 420,2013-05-01 17:01:00,
2013-05-01 13:06:00,86.9,66.2,30.00,NNW,345,2.5,6.5,52,0.00,,,0.00,WSDL version 420,2013-05-01 17:06:00,
2013-05-01 13:11:00,87.0,66.6,30.00,East,90,3.9,5.6,51,0.00,,,0.00,WSDL version 420,2013-05-01 17:11:00,
2013-05-01 13:16:00,86.4,65.6,29.97,East,90,4.4,8.5,50,0.00,,,0.00,WSDL version 420,2013-05-01 17:16:00,
2013-05-01 13:21:00,86.2,65.2,29.97,NE,50,2.9,8.5,49,0.00,,,0.00,WSDL version 420,2013-05-01 17:21:00,
2013-05-01 13:26:00,86.4,66.0,29.97,NE,50,2.1,4.9,51,0.00,,,0.00,WSDL version 420,2013-05-01 17:26:00,
2013-05-01 13:31:00,87.3,67.0,29.97,SE,140,3.3,4.9,51,0.00,,,0.00,WSDL version 420,2013-05-01 17:31:00,
2013-05-01 13:36:00,87.7,65.9,29.97,NNE,26,4.5,6.5,47,0.00,,,0.00,WSDL version 420,2013-05-01 17:36:00,
2013-05-01 13:41:00,86.9,64.3,29.97,ENE,68,3.5,6.9,48,0.00,,,0.00,WSDL version 420,2013-05-01 17:41:00,
2013-05-01 13:46:00,86.9,64.5,29.97,ENE,76,4.5,6.9,47,0.00,,,0.00,WSDL version 420,2013-05-01 17:46:00,
2013-05-01 13:51:00,87.1,65.5,29.97,ENE,58,3.8,6.9,49,0.00,,,0.00,WSDL version 420,2013-05-01 17:51:00,
2013-05-01 13:56:00,87.3,65.9,29.97,ENE,78,4.2,6.5,49,0.00,,,0.00,WSDL version 420,2013-05-01 17:56:00,
2013-05-01 14:01:00,87.4,66.5,29.97,SSW,212,3.1,6.5,50,0.00,,,0.00,WSDL version 420,2013-05-01 18:01:00,
2013-05-01 14:06:00,86.9,65.3,29.97,ESE,107,3.2,7.4,48,0.00,,,0.00,WSDL version 420,2013-05-01 18:06:00,
2013-05-01 14:11:00,85.8,63.9,29.97,ENE,60,4.9,8.1,49,0.00,,,0.00,WSDL version 420,2013-05-01 18:11:00,
2013-05-01 14:16:00,85.6,64.7,29.94,East,101,4.1,8.1,50,0.00,,,0.00,WSDL version 420,2013-05-01 18:16:00,
2013-05-01 14:21:00,85.3,64.6,29.94,ESE,105,4.8,6.3,50,0.00,,,0.00,WSDL version 420,2013-05-01 18:21:00,
2013-05-01 14:26:00,85.2,65.5,29.94,ENE,63,2.7,10.1,53,0.00,,,0.00,WSDL version 420,2013-05-01 18:26:00,
2013-05-01 14:31:00,85.1,65.0,29.94,ENE,71,4.6,10.1,51,0.00,,,0.00,WSDL version 420,2013-05-01 18:31:00,
2013-05-01 14:36:00,85.1,65.4,29.94,West,264,2.8,10.1,53,0.00,,,0.00,WSDL version 420,2013-05-01 18:36:00,
2013-05-01 14:41:00,84.9,65.3,29.94,ENE,68,3.6,5.4,52,0.00,,,0.00,WSDL version 420,2013-05-01 18:41:00,
2013-05-01 14:46:00,84.3,64.8,29.94,ENE,73,5.2,5.8,52,0.00,,,0.00,WSDL version 420,2013-05-01 18:46:00,
2013-05-01 14:51:00,84.0,65.2,29.94,SSE,153,5.0,6.5,53,0.00,,,0.00,WSDL version 420,2013-05-01 18:51:00,
2013-05-01 14:56:00,83.9,65.3,29.94,ENE,68,4.3,6.5,54,0.00,,,0.00,WSDL version 420,2013-05-01 18:56:00,
2013-05-01 15:01:00,83.5,65.4,29.94,ENE,68,4.3,5.6,55,0.00,,,0.00,WSDL version 420,2013-05-01 19:01:00,
2013-05-01 15:06:00,83.4,65.9,29.94,NE,45,2.9,5.8,56,0.00,,,0.00,WSDL version 420,2013-05-01 19:06:00,
2013-05-01 15:11:00,82.9,65.6,29.94,East,90,3.4,5.8,56,0.00,,,0.00,WSDL version 420,2013-05-01 19:11:00,
2013-05-01 15:16:00,82.9,65.7,29.94,SW,225,3.4,5.8,56,0.00,,,0.00,WSDL version 420,2013-05-01 19:16:00,
2013-05-01 15:21:00,82.2,65.0,29.94,SW,225,3.4,3.8,56,0.00,,,0.00,WSDL version 420,2013-05-01 19:21:00,
2013-05-01 15:26:00,81.7,64.6,29.94,NE,45,2.8,6.5,57,0.00,,,0.00,WSDL version 420,2013-05-01 19:26:00,
2013-05-01 15:31:00,81.3,65.1,29.97,SSW,203,3.1,6.5,59,0.00,,,0.00,WSDL version 420,2013-05-01 19:31:00,
2013-05-01 15:36:00,80.9,65.4,29.97,SSE,158,2.9,6.0,60,0.00,,,0.00,WSDL version 420,2013-05-01 19:36:00,
2013-05-01 15:41:00,80.5,65.6,29.97,NE,56,2.3,4.3,61,0.00,,,0.00,WSDL version 420,2013-05-01 19:41:00,
2013-05-01 15:46:00,80.1,65.6,29.94,SW,225,4.3,4.3,62,0.00,,,0.00,WSDL version 420,2013-05-01 19:46:00,
2013-05-01 15:51:00,79.8,65.6,29.94,SW,225,4.3,4.3,62,0.00,,,0.00,WSDL version 420,2013-05-01 19:51:00,
2013-05-01 15:56:00,79.6,65.6,29.94,NE,45,3.4,3.8,63,0.00,,,0.00,WSDL version 420,2013-05-01 19:56:00,
2013-05-01 16:01:00,79.4,65.7,29.94,SE,131,3.2,4.0,63,0.00,,,0.00,WSDL version 420,2013-05-01 20:01:00,
2013-05-01 16:06:00,79.2,65.7,29.94,South,180,2.9,4.0,64,0.00,,,0.00,WSDL version 420,2013-05-01 20:06:00,
2013-05-01 16:11:00,79.0,65.8,29.94,SW,225,0.0,2.0,64,0.00,,,0.00,WSDL version 420,2013-05-01 20:11:00,
2013-05-01 16:16:00,78.8,65.8,29.97,South,180,0.9,2.0,65,0.00,,,0.00,WSDL version 420,2013-05-01 20:16:00,
2013-05-01 16:21:00,78.6,66.0,29.97,NE,45,1.1,1.3,66,0.00,,,0.00,WSDL version 420,2013-05-01 20:21:00,
2013-05-01 16:26:00,78.5,66.2,29.97,South,180,0.0,2.2,66,0.00,,,0.00,WSDL version 420,2013-05-01 20:26:00,
2013-05-01 16:31:00,78.4,66.3,29.97,SW,225,0.0,2.2,67,0.00,,,0.00,WSDL version 420,2013-05-01 20:31:00,
2013-05-01 16:36:00,78.1,66.5,29.97,South,173,1.6,2.2,67,0.00,,,0.00,WSDL version 420,2013-05-01 20:36:00,
2013-05-01 16:41:00,76.9,64.4,29.97,ESE,113,2.0,3.6,65,0.00,,,0.00,WSDL version 420,2013-05-01 20:41:00,
2013-05-01 16:46:00,75.2,63.4,30.00,ESE,113,2.0,3.6,67,0.08,,,0.08,WSDL version 420,2013-05-01 20:46:00,
2013-05-01 16:51:00,73.9,62.6,30.00,ESE,113,2.0,2.0,69,0.16,,,0.16,WSDL version 420,2013-05-01 20:51:00,
2013-05-01 16:56:00,72.7,62.7,30.00,North,0,0.0,1.6,71,0.33,,,0.33,WSDL version 420,2013-05-01 20:56:00,
2013-05-01 17:01:00,72.1,62.3,30.00,North,-999,-999.0,-999.0,72,0.41,,,0.41,WSDL version 420,2013-05-01 21:01:00,
2013-05-01 17:06:00,71.5,62.8,30.00,North,-999,-999.0,-999.0,75,0.41,,,0.41,WSDL version 420,2013-05-01 21:06:00,
2013-05-01 17:11:00,71.2,63.5,30.00,North,-999,-999.0,-999.0,77,0.45,,,0.45,WSDL version 420,2013-05-01 21:11:00,
2013-05-01 17:16:00,71.1,63.6,29.97,North,-999,-999.0,-999.0,78,0.45,,,0.45,WSDL version 420,2013-05-01 21:16:00,
2013-05-01 17:21:00,71.0,63.8,29.97,North,-999,-999.0,-999.0,78,0.45,,,0.45,WSDL version 420,2013-05-01 21:21:00,
2013-05-01 17:26:00,70.7,63.6,29.97,North,-999,-999.0,-999.0,79,0.49,,,0.49,WSDL version 420,2013-05-01 21:26:00,
2013-05-01 17:31:00,70.7,64.0,29.94,North,-999,-999.0,-999.0,80,0.49,,,0.49,WSDL version 420,2013-05-01 21:31:00,
2013-05-01 17:36:00,70.9,64.4,29.94,North,-999,-999.0,-999.0,80,0.49,,,0.49,WSDL version 420,2013-05-01 21:36:00,
2013-05-01 17:41:00,70.8,64.5,29.94,North,-999,-999.0,-999.0,80,0.53,,,0.53,WSDL version 420,2013-05-01 21:41:00,
2013-05-01 17:46:00,70.7,64.2,29.94,NNE,23,0.0,0.0,80,0.45,,,0.53,WSDL version 420,2013-05-01 21:46:00,
2013-05-01 17:51:00,70.7,64.5,29.94,North,8,0.0,0.0,81,0.37,,,0.53,WSDL version 420,2013-05-01 21:51:00,
2013-05-01 17:56:00,70.8,64.7,29.94,WNW,293,0.0,0.0,81,0.20,,,0.53,WSDL version 420,2013-05-01 21:56:00,
2013-05-01 18:01:00,70.8,64.7,29.94,SW,225,0.0,0.0,81,0.12,,,0.53,WSDL version 420,2013-05-01 22:01:00,
2013-05-01 18:06:00,70.7,64.6,29.94,SW,225,0.0,0.0,81,0.12,,,0.53,WSDL version 420,2013-05-01 22:06:00,
2013-05-01 18:11:00,70.8,65.1,29.94,SW,225,0.0,0.0,82,0.08,,,0.53,WSDL version 420,2013-05-01 22:11:00,
2013-05-01 18:16:00,70.8,65.2,29.97,North,0,0.0,0.0,82,0.08,,,0.53,WSDL version 420,2013-05-01 22:16:00,
2013-05-01 18:21:00,70.7,65.0,29.97,North,-999,-999.0,-999.0,82,0.08,,,0.53,WSDL version 420,2013-05-01 22:21:00,
2013-05-01 18:26:00,70.8,65.2,29.97,North,-999,-999.0,-999.0,83,0.04,,,0.53,WSDL version 420,2013-05-01 22:26:00,
2013-05-01 18:31:00,70.9,65.6,29.97,North,-999,-999.0,-999.0,83,0.04,,,0.53,WSDL version 420,2013-05-01 22:31:00,
2013-05-01 18:36:00,71.0,65.6,29.97,North,-999,-999.0,-999.0,83,0.04,,,0.53,WSDL version 420,2013-05-01 22:36:00,
2013-05-01 18:41:00,71.2,65.9,29.97,North,-999,-999.0,-999.0,83,0.00,,,0.53,WSDL version 420,2013-05-01 22:41:00,
2013-05-01 18:46:00,71.0,65.5,29.97,North,-999,-999.0,-999.0,82,0.00,,,0.53,WSDL version 420,2013-05-01 22:46:00,
2013-05-01 18:51:00,70.9,65.3,29.97,North,-999,-999.0,-999.0,82,0.00,,,0.53,WSDL version 420,2013-05-01 22:51:00,
2013-05-01 18:56:00,70.9,65.2,29.97,North,-999,-999.0,-999.0,82,0.00,,,0.53,WSDL version 420,2013-05-01 22:56:00,
2013-05-01 19:01:00,70.8,65.1,29.97,North,-999,-999.0,-999.0,82,0.00,,,0.53,WSDL version 420,2013-05-01 23:01:00,
2013-05-01 19:06:00,70.8,65.1,29.97,North,-999,-999.0,-999.0,82,0.00,,,0.53,WSDL version 420,2013-05-01 23:06:00,
2013-05-01 19:11:00,70.7,65.1,29.97,North,-999,-999.0,-999.0,82,0.00,,,0.53,WSDL version 420,2013-05-01 23:11:00,
2013-05-01 19:16:00,70.5,64.9,29.97,North,-999,-999.0,-999.0,83,0.00,,,0.53,WSDL version 420,2013-05-01 23:16:00,
2013-05-01 19:21:00,70.5,65.2,29.97,North,-999,-999.0,-999.0,83,0.00,,,0.53,WSDL version 420,2013-05-01 23:21:00,
2013-05-01 19:26:00,70.5,65.2,29.97,North,-999,-999.0,-999.0,83,0.00,,,0.53,WSDL version 420,2013-05-01 23:26:00,
2013-05-01 19:31:00,70.3,65.1,29.97,North,-999,-999.0,-999.0,83,0.00,,,0.53,WSDL version 420,2013-05-01 23:31:00,
2013-05-01 19:36:00,70.3,65.2,29.97,North,-999,-999.0,-999.0,84,0.00,,,0.53,WSDL version 420,2013-05-01 23:36:00,
2013-05-01 19:41:00,70.3,65.4,29.97,North,-999,-999.0,-999.0,84,0.00,,,0.53,WSDL version 420,2013-05-01 23:41:00,
2013-05-01 19:46:00,70.3,65.4,29.97,North,-999,-999.0,-999.0,84,0.00,,,0.53,WSDL version 420,2013-05-01 23:46:00,
2013-05-01 19:51:00,70.3,65.4,29.97,North,-999,-999.0,-999.0,84,0.00,,,0.53,WSDL version 420,2013-05-01 23:51:00,
2013-05-01 19:56:00,70.2,65.6,29.97,North,-999,-999.0,-999.0,86,0.00,,,0.53,WSDL version 420,2013-05-01 23:56:00,
2013-05-01 20:01:00,70.2,65.6,29.97,North,-999,-999.0,-999.0,86,0.00,,,0.53,WSDL version 420,2013-05-02 00:01:00,
2013-05-01 20:06:00,70.2,65.6,29.97,North,-999,-999.0,-999.0,86,0.00,,,0.53,WSDL version 420,2013-05-02 00:06:00,
2013-05-01 20:11:00,70.2,65.6,29.97,North,-999,-999.0,-999.0,86,0.00,,,0.53,WSDL version 420,2013-05-02 00:11:00,
2013-05-01 20:16:00,70.2,65.9,29.97,North,-999,-999.0,-999.0,87,0.00,,,0.53,WSDL version 420,2013-05-02 00:16:00,
2013-05-01 20:21:00,70.2,66.0,29.97,North,-999,-999.0,-999.0,87,0.00,,,0.53,WSDL version 420,2013-05-02 00:21:00,
2013-05-01 20:26:00,70.2,66.0,29.97,North,-999,-999.0,-999.0,87,0.00,,,0.53,WSDL version 420,2013-05-02 00:26:00,
2013-05-01 20:31:00,70.2,66.0,29.97,North,-999,-999.0,-999.0,87,0.00,,,0.53,WSDL version 420,2013-05-02 00:31:00,
2013-05-01 20:36:00,70.0,65.8,29.97,North,-999,-999.0,-999.0,87,0.00,,,0.53,WSDL version 420,2013-05-02 00:36:00,
2013-05-01 20:41:00,70.0,65.9,29.97,North,-999,-999.0,-999.0,88,0.00,,,0.53,WSDL version 420,2013-05-02 00:41:00,
2013-05-01 20:46:00,70.0,66.2,30.00,North,-999,-999.0,-999.0,88,0.00,,,0.53,WSDL version 420,2013-05-02 00:46:00,
2013-05-01 20:51:00,70.1,66.3,30.00,North,-999,-999.0,-999.0,88,0.00,,,0.53,WSDL version 420,2013-05-02 00:51:00,
2013-05-01 20:56:00,70.1,66.3,30.00,North,-999,-999.0,-999.0,88,0.00,,,0.53,WSDL version 420,2013-05-02 00:56:00,
2013-05-01 21:01:00,70.0,66.2,30.00,North,-999,-999.0,-999.0,88,0.00,,,0.53,WSDL version 420,2013-05-02 01:01:00,
2013-05-01 21:06:00,70.0,66.2,30.00,North,-999,-999.0,-999.0,88,0.00,,,0.53,WSDL version 420,2013-05-02 01:06:00,
2013-05-01 21:11:00,69.9,66.5,30.00,North,-999,-999.0,-999.0,89,0.00,,,0.53,WSDL version 420,2013-05-02 01:11:00,
2013-05-01 21:16:00,69.8,66.7,29.97,North,-999,-999.0,-999.0,90,0.00,,,0.53,WSDL version 420,2013-05-02 01:16:00,
2013-05-01 21:21:00,69.8,66.7,29.97,North,-999,-999.0,-999.0,90,0.00,,,0.53,WSDL version 420,2013-05-02 01:21:00,
2013-05-01 21:26:00,69.8,67.0,29.97,North,-999,-999.0,-999.0,91,0.00,,,0.53,WSDL version 420,2013-05-02 01:26:00,
2013-05-01 21:31:00,69.6,66.9,29.97,North,-999,-999.0,-999.0,91,0.00,,,0.53,WSDL version 420,2013-05-02 01:31:00,
2013-05-01 21:36:00,69.7,67.0,29.97,North,-999,-999.0,-999.0,91,0.00,,,0.53,WSDL version 420,2013-05-02 01:36:00,
2013-05-01 21:41:00,69.8,67.1,29.97,North,-999,-999.0,-999.0,91,0.04,,,0.57,WSDL version 420,2013-05-02 01:41:00,
2013-05-01 21:46:00,70.0,67.3,29.97,North,-999,-999.0,-999.0,91,0.04,,,0.57,WSDL version 420,2013-05-02 01:46:00,
2013-05-01 21:51:00,70.0,67.3,29.97,North,-999,-999.0,-999.0,91,0.09,,,0.62,WSDL version 420,2013-05-02 01:51:00,
2013-05-01 21:56:00,69.9,67.2,29.97,North,-999,-999.0,-999.0,91,0.13,,,0.66,WSDL version 420,2013-05-02 01:56:00,
2013-05-01 22:01:00,69.9,67.2,29.97,North,-999,-999.0,-999.0,91,0.13,,,0.66,WSDL version 420,2013-05-02 02:01:00,
2013-05-01 22:06:00,70.0,67.3,29.97,North,-999,-999.0,-999.0,91,0.13,,,0.66,WSDL version 420,2013-05-02 02:06:00,
2013-05-01 22:11:00,70.0,67.3,29.97,North,-999,-999.0,-999.0,91,0.13,,,0.66,WSDL version 420,2013-05-02 02:11:00,
2013-05-01 22:16:00,70.0,67.3,29.97,North,-999,-999.0,-999.0,91,0.13,,,0.66,WSDL version 420,2013-05-02 02:16:00,
2013-05-01 22:21:00,70.2,67.7,29.97,North,-999,-999.0,-999.0,92,0.13,,,0.66,WSDL version 420,2013-05-02 02:21:00,
2013-05-01 22:26:00,70.2,67.8,29.97,North,-999,-999.0,-999.0,92,0.13,,,0.66,WSDL version 420,2013-05-02 02:26:00,
2013-05-01 22:31:00,70.2,67.8,29.97,North,-999,-999.0,-999.0,92,0.13,,,0.66,WSDL version 420,2013-05-02 02:31:00,
2013-05-01 22:36:00,70.3,68.0,29.97,North,-999,-999.0,-999.0,92,0.13,,,0.66,WSDL version 420,2013-05-02 02:36:00,
2013-05-01 22:41:00,70.3,68.0,29.97,North,-999,-999.0,-999.0,92,0.09,,,0.66,WSDL version 420,2013-05-02 02:41:00,
2013-05-01 22:46:00,70.3,68.0,29.97,North,-999,-999.0,-999.0,92,0.09,,,0.66,WSDL version 420,2013-05-02 02:46:00,
2013-05-01 22:51:00,70.4,68.1,29.97,North,-999,-999.0,-999.0,92,0.04,,,0.66,WSDL version 420,2013-05-02 02:51:00,
2013-05-01 22:56:00,70.5,68.2,29.97,North,-999,-999.0,-999.0,92,0.00,,,0.66,WSDL version 420,2013-05-02 02:56:00,
2013-05-01 23:01:00,70.5,68.2,29.94,North,-999,-999.0,-999.0,92,0.00,,,0.66,WSDL version 420,2013-05-02 03:01:00,
2013-05-01 23:06:00,70.6,68.3,29.94,North,-999,-999.0,-999.0,92,0.00,,,0.66,WSDL version 420,2013-05-02 03:06:00,
2013-05-01 23:11:00,70.7,68.3,29.94,North,-999,-999.0,-999.0,92,0.00,,,0.66,WSDL version 420,2013-05-02 03:11:00,
2013-05-01 23:16:00,70.7,68.3,29.94,North,-999,-999.0,-999.0,92,0.00,,,0.66,WSDL version 420,2013-05-02 03:16:00,
2013-05-01 23:21:00,70.7,68.3,29.94,North,-999,-999.0,-999.0,92,0.00,,,0.66,WSDL version 420,2013-05-02 03:21:00,
2013-05-01 23:26:00,70.8,68.4,29.94,North,-999,-999.0,-999.0,92,0.00,,,0.66,WSDL version 420,2013-05-02 03:26:00,
2013-05-01 23:31:00,70.9,68.5,29.94,North,-999,-999.0,-999.0,92,0.00,,,0.66,WSDL version 420,2013-05-02 03:31:00,
2013-05-01 23:36:00,71.0,68.6,29.94,North,-999,-999.0,-999.0,92,0.00,,,0.66,WSDL version 420,2013-05-02 03:36:00,
2013-05-01 23:41:00,71.1,68.7,29.94,North,-999,-999.0,-999.0,92,0.00,,,0.66,WSDL version 420,2013-05-02 03:41:00,
2013-05-01 23:46:00,70.9,68.2,30.00,North,-999,-999.0,-999.0,91,0.00,,,0.66,WSDL version 420,2013-05-02 03:46:00,
2013-05-01 23:51:00,70.7,68.0,30.00,North,-999,-999.0,-999.0,91,0.00,,,0.66,WSDL version 420,2013-05-02 03:51:00,
2013-05-01 23:56:00,70.7,68.0,30.00,North,-999,-999.0,-999.0,91,0.00,,,0.66,WSDL version 420,2013-05-02 03:56:00,